This demonstration page uses our WeatherBlox Daily Observations layout. Learn more.

Left ArrowRight Arrow

31.31129, -92.44514

Hourly Observations for December 29, 2015

Temp ( °F °C ) Dew Point ( °F °C ) Humidity (%) Winds ( mph kmh ) Pressure ( in mb ) Visibility ( mi km ) Precip ( " mm )
12:53 am 00:53 Cloudy 44 6.7 37 2.8 76 76 NW 8 13 30.01 1016 10 16 0.00 0.00
1:53 am 01:53 Cloudy 44 6.7 37 2.8 76 76 W 6 9 30.02 1017 10 16 0.00 0.00
2:53 am 02:53 Cloudy 43 6.1 37 2.8 80 80 W 5 7 30.03 1017 10 16 0.00 0.00
3:53 am 03:53 Cloudy 43 6.1 37 2.8 80 80 WNW 8 13 30.04 1017 10 16 0.00 0.00
4:53 am 04:53 Cloudy 43 6.1 37 2.8 80 80 N 3 6 30.06 1018 10 16 0.00 0.00
5:53 am 05:53 Cloudy 43 6.1 37 2.8 80 80 NNE 3 6 30.06 1018 10 16 0.00 0.00
6:53 am 06:53 Cloudy 43 6.1 37 2.8 80 80 WNW 3 6 30.10 1019 10 16 0.00 0.00
7:53 am 07:53 Cloudy 44 6.7 38 3.3 79 79 NE 5 7 30.10 1019 10 16 0.00 0.00
8:53 am 08:53 Cloudy 43 6.1 37 2.8 80 80 N 5 7 30.13 1020 10 16 0.00 0.00
9:53 am 09:53 Cloudy 44 6.7 38 3.3 79 79 Calm 30.15 1021 10 16 0.00 0.00
10:53 am 10:53 Cloudy 45 7.2 38 3.3 77 77 ESE 3 6 30.14 1021 10 16 0.00 0.00
11:53 am 11:53 Cloudy 46 7.8 39 3.9 77 77 SSE 6 9 30.13 1020 10 16 0.00 0.00
12:53 pm 12:53 Cloudy 48 8.9 39 3.9 71 71 SE 3 6 30.12 1020 10 16 0.00 0.00
1:53 pm 13:53 Mostly Cloudy 49 9.4 40 4.4 71 71 VRB 3 6 30.08 1019 10 16 0.00 0.00
2:01 pm 14:01 Partly Cloudy 50 10 40 4.4 68 68 VRB 3 6 30.06 1018 10 16 0.00 0.00
2:53 pm 14:53 Mostly Sunny 50 10 41 5 71 71 VRB 3 6 30.07 1018 10 16 0.00 0.00
3:53 pm 15:53 Cloudy 51 10.6 41 5 69 69 E 5 7 30.07 1018 10 16 0.00 0.00
4:53 pm 16:53 Cloudy 51 10.6 42 5.6 71 71 E 6 9 30.06 1018 10 16 0.00 0.00
5:53 pm 17:53 Mostly Cloudy 50 10 42 5.6 74 74 E 7 11 30.06 1018 10 16 0.00 0.00
6:53 pm 18:53 Cloudy 51 10.6 44 6.7 77 77 NNW 5 7 30.11 1020 9 14 0.00 0.00
7:53 pm 19:53 Cloudy 51 10.6 43 6.1 74 74 N 6 9 30.11 1020 10 16 0.00 0.00
8:53 pm 20:53 Cloudy 50 10 43 6.1 77 77 ENE 5 7 30.11 1020 10 16 0.00 0.00
9:53 pm 21:53 Cloudy 51 10.6 44 6.7 77 77 Calm 30.14 1021 10 16 0.00 0.00
10:53 pm 22:53 Cloudy 51 10.6 44 6.7 77 77 N 5 7 30.16 1021 10 16 0.00 0.00
11:53 pm 23:53 Cloudy 50 10 44 6.7 80 80 N 6 9 30.16 1022 10 16 0.00 0.00

Powered by AerisWeather